NC4TP Weather Reports


time (UTC)temp
F
wind
direction
speed
knots
gust
knots
rain 1hr
in
rain 24hr
in
rain mn
in
humidity
%
barometer
mb
20260503185354 63 288 0.0 0.9 0.00 0.00 0.00 39 1016.0
20260503184915 63 290 0.0 7.0 0.00 0.00 0.00 39 1016.2
20260503184353 63 173 0.0 7.0 0.00 0.00 0.00 38 1016.4
20260503183854 64 314 0.0 4.3 0.00 0.00 0.00 38 1016.4
20260503183355 64 241 0.0 4.3 0.00 0.00 0.00 39 1016.4
20260503182915 65 173 0.0 8.7 0.00 0.00 0.00 36 1016.5
20260503182336 65 307 0.0 8.7 0.00 0.00 0.00 38 1016.5
20260503181912 65 296 0.0 0.9 0.00 0.00 0.00 42 1016.5
20260503181352 64 247 0.0 0.9 0.00 0.00 0.00 42 1016.6
20260503180852 64 306 0.0 7.0 0.00 0.00 0.00 40 1016.8
20260503180355 64 322 0.0 7.0 0.00 0.00 0.00 37 1016.8
20260503175852 64 311 0.9 4.3 0.00 0.00 0.00 40 1016.9
20260503175352 64 304 0.0 0.9 0.00 0.00 0.00 39 1016.9
20260503174856 64 305 0.0 5.2 0.00 0.00 0.00 38 1016.8
20260503174338 64 165 0.0 6.1 0.00 0.00 0.00 40 1016.9
20260503173840 64 180 0.0 6.1 0.00 0.00 0.00 39 1017.1
20260503173344 64 132 0.9 4.3 0.00 0.00 0.00 41 1017.2
20260503172839 63 251 0.0 0.0 0.00 0.00 0.00 42 1017.2
20260503172401 63 196 0.0 0.0 0.00 0.00 0.00 41 1017.3
20260503171842 62 266 0.0 1.7 0.00 0.00 0.00 37 1017.4
20260503171345 63 348 0.0 5.2 0.00 0.00 0.00 40 1017.6
20260503170848 63 317 0.0 5.2 0.00 0.00 0.00 40 1017.7
20260503170349 63 231 0.0 3.5 0.00 0.00 0.00 40 1017.7
20260503150900 57 130 0.0 1.7 0.00 0.00 0.00 54 1019.1
20260503150340 56 284 0.0 0.0 0.00 0.00 0.00 55 1019.1
20260503131348 48 281 0.0 0.0 0.00 0.00 0.00 73 1019.2
20260503130910 47 174 0.0 0.0 0.00 0.00 0.00 76 1019.2
20260503130349 47 294 0.0 0.0 0.00 0.00 0.00 77 1019.2
20260503110336 32 294 0.0 0.0 0.00 0.00 0.00 93 1018.6
20260503090336 32 340 0.0 0.0 0.00 0.00 0.00 92 1018.1
20260503081342 33 340 0.0 0.0 0.00 0.00 0.00 91 1018.0
20260503080846 33 340 0.0 0.0 0.00 0.00 0.00 91 1018.0
20260503080348 33 340 0.0 0.0 0.00 0.00 0.00 91 1017.9
20260503072850 33 340 0.0 0.0 0.00 0.00 0.00 91 1018.0
20260503072352 33 340 0.0 0.0 0.00 0.00 0.00 91 1017.9
20260503071854 34 340 0.0 0.0 0.00 0.00 0.00 91 1018.0
20260503071355 34 340 0.0 0.0 0.00 0.00 0.00 91 1018.0
20260503070836 34 340 0.0 0.0 0.00 0.00 0.00 90 1018.0
20260503070338 34 340 0.0 0.0 0.00 0.00 0.00 90 1018.0
20260503060343 34 340 0.0 0.0 0.00 0.00 0.00 87 1018.3
20260503054844 34 340 0.0 0.0 0.00 0.00 0.00 88 1018.4
20260503054342 35 340 0.0 0.0 0.00 0.00 0.00 88 1018.4
20260503053844 35 340 0.0 0.0 0.00 0.00 0.00 88 1018.4
20260503053344 35 340 0.0 0.0 0.00 0.00 0.00 88 1018.4
20260503052842 35 340 0.0 0.0 0.00 0.00 0.00 87 1018.4
20260503052342 35 340 0.0 0.0 0.00 0.00 0.00 87 1018.4
20260503051844 35 340 0.0 0.0 0.00 0.00 0.00 87 1018.4
20260503051346 35 340 0.0 0.0 0.00 0.00 0.00 87 1018.3
20260503050848 35 340 0.0 0.0 0.00 0.00 0.00 87 1018.3
20260503050349 35 340 0.0 0.0 0.00 0.00 0.00 86 1018.3
20260503045848 35 340 0.0 0.0 0.00 0.00 0.00 86 1018.4
20260503045349 36 340 0.0 0.0 0.00 0.00 0.00 86 1018.4
20260503044849 36 340 0.0 0.0 0.00 0.00 0.00 86 1018.3
20260503044351 36 340 0.0 0.0 0.00 0.00 0.00 85 1018.3
20260503043850 36 340 0.0 0.0 0.00 0.00 0.00 85 1018.3
20260503043413 36 340 0.0 0.0 0.00 0.00 0.00 85 1018.3
20260503042849 36 340 0.0 0.0 0.00 0.00 0.00 85 1018.4
20260503042351 36 340 0.0 0.0 0.00 0.00 0.00 84 1018.4
20260503041852 37 340 0.0 0.0 0.00 0.00 0.00 84 1018.4
20260503041353 37 340 0.0 0.0 0.00 0.00 0.00 84 1018.4
20260503040853 37 340 0.0 0.0 0.00 0.00 0.00 83 1018.4
20260503040335 37 340 0.0 0.0 0.00 0.00 0.00 83 1018.4
20260503035855 37 340 0.0 0.0 0.00 0.00 0.00 83 1018.3
20260503035336 37 340 0.0 0.0 0.00 0.00 0.00 82 1018.3
20260503034840 38 340 0.0 0.0 0.00 0.00 0.00 82 1018.3
20260503034342 38 340 0.0 0.0 0.00 0.00 0.00 82 1018.3
20260503033845 38 340 0.0 0.0 0.00 0.00 0.00 82 1018.3
20260503033342 38 340 0.0 0.0 0.00 0.00 0.00 81 1018.3
20260503032901 38 340 0.0 0.0 0.00 0.00 0.00 81 1018.3
20260503032341 38 340 0.0 0.0 0.00 0.00 0.00 81 1018.3
20260503031844 39 340 0.0 0.0 0.00 0.00 0.00 81 1018.4
20260503031345 39 340 0.0 0.0 0.00 0.00 0.00 80 1018.3
20260503030907 39 340 0.0 0.0 0.00 0.00 0.00 79 1018.4
20260503030347 39 340 0.0 0.0 0.00 0.00 0.00 79 1018.4
20260503025845 39 340 0.0 0.0 0.00 0.00 0.00 79 1018.3
20260503025348 40 340 0.0 0.0 0.00 0.00 0.00 79 1018.4
20260503024850 40 340 0.0 0.0 0.00 0.00 0.00 78 1018.4
20260503024352 40 340 0.0 0.0 0.00 0.00 0.00 78 1018.4
20260503023850 40 340 0.0 0.0 0.00 0.00 0.00 77 1018.4
20260503023353 40 340 0.0 0.0 0.00 0.00 0.00 77 1018.4
20260503022851 41 340 0.0 0.0 0.00 0.00 0.00 77 1018.4
20260503022351 41 340 0.0 0.0 0.00 0.00 0.00 78 1018.4
20260503021913 41 340 0.0 0.0 0.00 0.00 0.00 77 1018.3
20260503021354 41 340 0.0 0.0 0.00 0.00 0.00 76 1018.3
20260503020914 41 340 0.0 0.0 0.00 0.00 0.00 76 1018.3
20260503020355 42 340 0.0 0.0 0.00 0.00 0.00 74 1018.2
20260503015853 42 340 0.0 0.0 0.00 0.00 0.00 73 1018.2
20260503015336 42 340 0.0 0.0 0.00 0.00 0.00 72 1018.2
20260503014837 43 340 0.0 0.0 0.00 0.00 0.00 72 1018.1
20260503014334 43 340 0.0 0.0 0.00 0.00 0.00 72 1018.1
20260503013857 43 340 0.0 0.0 0.00 0.00 0.00 72 1018.1
20260503013336 44 340 0.0 0.0 0.00 0.00 0.00 72 1018.0
20260503012836 44 340 0.0 0.0 0.00 0.00 0.00 71 1018.0
20260503012338 44 340 0.0 0.0 0.00 0.00 0.00 71 1017.9
20260503011858 45 340 0.0 0.0 0.00 0.00 0.00 69 1017.9
20260503011400 45 340 0.0 0.0 0.00 0.00 0.00 68 1017.8
20260503010840 45 340 0.0 0.0 0.00 0.00 0.00 68 1017.7
20260503010341 46 340 0.0 0.0 0.00 0.00 0.00 68 1017.7
20260503005917 46 340 0.0 0.0 0.00 0.00 0.00 69 1017.7
20260503005336 46 340 0.0 0.0 0.00 0.00 0.00 67 1017.7
20260503004837 47 340 0.0 0.0 0.00 0.00 0.00 66 1017.5
20260503004359 47 340 0.0 0.0 0.00 0.00 0.00 64 1017.5
20260503003900 47 340 0.0 0.0 0.00 0.00 0.00 65 1017.5
20260503003343 48 340 0.0 0.0 0.00 0.00 0.00 65 1017.5
20260503002900 48 340 0.0 0.0 0.00 0.00 0.00 64 1017.5
20260503002342 48 340 0.0 0.0 0.00 0.00 0.00 63 1017.5
20260503001844 48 340 0.0 0.0 0.00 0.00 0.00 61 1017.5
20260503001345 49 340 0.0 0.0 0.00 0.00 0.00 61 1017.4
20260503000844 49 340 0.0 0.0 0.00 0.00 0.00 58 1017.3
20260503000346 49 340 0.0 0.0 0.00 0.00 0.00 58 1017.3
20260502235846 50 340 0.0 0.0 0.00 0.00 0.00 58 1017.2
20260502235348 50 340 0.0 0.0 0.00 0.00 0.00 57 1017.2
20260502234849 50 333 0.0 0.0 0.00 0.00 0.00 57 1017.2
20260502234412 51 333 0.0 0.0 0.00 0.00 0.00 57 1017.2
20260502233850 51 332 0.0 0.0 0.00 0.00 0.00 57 1017.1
20260502233412 51 355 0.0 0.0 0.00 0.00 0.00 54 1017.1
20260502232848 51 355 0.0 0.0 0.00 0.00 0.00 55 1017.0
20260502232351 51 355 0.0 0.0 0.00 0.00 0.00 55 1017.1
20260502231848 51 355 0.0 0.0 0.00 0.00 0.00 53 1017.1
20260502231351 52 355 0.0 0.0 0.00 0.00 0.00 58 1017.1
20260502230850 52 355 0.0 0.0 0.00 0.00 0.00 54 1017.0
20260502230351 52 355 0.0 0.0 0.00 0.00 0.00 53 1017.1
20260502225851 52 355 0.0 0.0 0.00 0.00 0.00 51 1017.0
20260502225351 53 355 0.0 0.0 0.00 0.00 0.00 48 1017.0
20260502224854 53 271 0.0 0.0 0.00 0.00 0.00 52 1016.9
20260502224336 53 321 0.0 0.0 0.00 0.00 0.00 54 1016.9
20260502223857 54 321 0.0 0.0 0.00 0.00 0.00 53 1016.8
20260502223338 54 321 0.0 0.0 0.00 0.00 0.00 48 1016.8
20260502222837 54 321 0.0 0.9 0.00 0.00 0.00 49 1016.8
20260502222355 54 321 0.0 0.9 0.00 0.00 0.00 49 1016.8
20260502221836 54 329 0.0 0.0 0.00 0.00 0.00 47 1016.9
20260502221339 54 307 0.0 0.0 0.00 0.00 0.00 50 1016.8
20260502220841 54 304 0.0 0.0 0.00 0.00 0.00 50 1016.8
20260502220342 54 304 0.0 0.0 0.00 0.00 0.00 49 1016.7
20260502215843 55 63 0.0 0.0 0.00 0.00 0.00 49 1016.7
20260502215407 55 63 0.0 0.0 0.00 0.00 0.00 45 1016.6
20260502214848 55 343 0.0 0.0 0.00 0.00 0.00 45 1016.7
20260502214350 55 345 0.0 0.0 0.00 0.00 0.00 49 1016.6
20260502213850 55 257 0.0 0.0 0.00 0.00 0.00 48 1016.6
20260502213351 55 329 0.0 0.0 0.00 0.00 0.00 45 1016.6
20260502212850 56 42 0.0 0.0 0.00 0.00 0.00 45 1016.5
20260502212347 56 300 0.0 0.0 0.00 0.00 0.00 44 1016.5
20260502211848 56 348 0.0 0.0 0.00 0.00 0.00 45 1016.6
20260502211350 57 355 0.0 0.0 0.00 0.00 0.00 46 1016.5
20260502210852 57 355 0.0 0.0 0.00 0.00 0.00 43 1016.4
20260502210354 57 355 0.0 0.0 0.00 0.00 0.00 43 1016.5
20260502205853 57 321 0.0 0.0 0.00 0.00 0.00 44 1016.4
20260502205353 57 342 0.0 0.0 0.00 0.00 0.00 46 1016.4
20260502204835 56 65 0.0 0.0 0.00 0.00 0.00 48 1016.4
20260502204357 57 346 0.0 0.0 0.00 0.00 0.00 41 1016.5
20260502203917 58 5 0.0 0.0 0.00 0.00 0.00 41 1016.5
20260502203336 58 319 0.0 0.0 0.00 0.00 0.00 41 1016.5
20260502202850 58 340 0.0 0.0 0.00 0.00 0.00 46 1016.5
20260502202353 58 158 0.0 0.0 0.00 0.00 0.00 48 1016.5
20260502201915 57 11 0.0 0.0 0.00 0.00 0.00 49 1016.6
20260502201353 57 293 0.0 0.0 0.00 0.00 0.00 44 1016.6
20260502200835 57 272 0.0 0.0 0.00 0.00 0.00 45 1016.6
20260502200358 57 220 0.0 0.0 0.00 0.00 0.00 40 1016.6
20260502195836 57 19 0.0 0.0 0.00 0.00 0.00 44 1016.8
20260502195359 58 234 0.0 0.0 0.00 0.00 0.00 49 1016.7
20260502194839 57 355 0.0 0.0 0.00 0.00 0.00 42 1016.9
20260502194341 58 355 0.0 0.0 0.00 0.00 0.00 41 1016.8
20260502193843 58 360 0.0 0.0 0.00 0.00 0.00 47 1016.8
20260502193339 58 65 0.0 0.0 0.00 0.00 0.00 48 1016.8
20260502192837 58 65 0.0 0.0 0.00 0.00 0.00 43 1016.9
20260502192359 57 100 0.0 0.0 0.00 0.00 0.00 46 1016.9
20260502191837 57 360 0.0 3.5 0.00 0.00 0.00 44 1017.0
20260502191340 58 309 0.0 0.9 0.00 0.00 0.00 42 1017.0
20260502190840 58 291 0.0 0.0 0.00 0.00 0.00 45 1017.1
20260502190342 58 111 0.0 0.0 0.00 0.00 0.00 46 1017.1
20260502185841 58 324 0.0 7.8 0.00 0.00 0.00 44 1017.0